SCP
0 0 0 0 0 0 0 0 0 0 0 0 0 0 0 0 0 0 0 0 0 0 1 1 1 1 0 0 0 0 0 0 0 0 0 0 0 0 0 0 -0 0 0
0 0 0 0 0 0 0 0 0 0 0 0 0 0 0 0 0 0 0 0 0 0 1 1 1 1 1 0 0 0 0 0 0 0 0 0 0 0 0 0 0 0 0
0 0 0 0 0 0 0 0 0 0 0 0 0 0 0 0 0 0 0 0 0 0 1 1 1 1 1 1 1 0 0 0 0 0 0 0 0 0 0 0 0 0 0
0 0 0 0 0 0 0 0 0 0 0 0 0 0 0 0 0 0 0 0 0 0 0 1 1 1 1 1 1 1 0 0 0 0 0 0 0 0 0 0 0 0 0
1 0 0 0 0 0 0 0 0 0 0 0 0 0 0 0 0 0 0 0 0 0 0 0 1 1 1 1 1 1 1 1 0 0 0 0 0 0 0 0 0 0 0
1 1 1 0 0 1 0 0 0 0 0 0 0 0 0 0 0 0 0 0 0 0 0 0 0 1 1 1 1 1 1 1 0 0 0 0 0 0 0 0 0 0 0
2 1 2 2 1 1 1 1 1 0 0 0 0 0 0 0 0 0 0 0 0 0 0 0 0 0 1 1 1 1 0 0 0 0 0 0 0 0 0 0 0 0 0
2 3 3 2 1 1 1 1 1 0 0 0 0 0 0 0 0 0 0 0 0 0 0 0 0 0 0 0 0 1 0 0 0 0 0 0 0 0 0 0 0 0 0
3 4 3 4 3 2 1 1 1 1 1 0 0 0 0 0 0 0 0 0 0 0 0 0 0 0 0 0 0 0 0 0 0 0 0 0 0 0 0 0 0 0 0
2 3 4 5 2 3 2 1 1 1 0 1 0 0 0 0 0 -0 0 0 0 0 0 0 0 0 0 0 0 0 0 0 0 0 0 0 0 0 0 0 0 0 0
1 2 2 1 4 5 4 2 1 0 0 1 0 0 0 0 0 0 -0 0 0 0 0 0 0 0 0 0 0 0 0 0 0 0 0 0 0 0 0 0 0 0 0
1 2 1 1 3 4 4 5 4 0 0 0 0 0 0 0 0 0 0 -0 0 0 0 0 0 0 0 0 0 0 0 0 0 0 0 0 0 0 0 0 0 0 0
0 0 1 1 1 2 2 2 3 3 2 2 1 1 1 0 0 0 0 0 0 0 0 0 0 0 0 0 0 0 0 0 0 0 0 0 0 0 0 0 0 0 0
0 0 0 1 1 1 1 2 2 1 1 1 1 1 1 1 1 0 0 0 0 0 0 0 0 0 0 0 0 0 0 0 0 0 0 0 0 0 0 0 0 0 0
0 0 0 0 0 1 1 1 1 1 1 1 1 2 2 2 2 0 0 0 0 0 0 0 0 0 0 0 0 0 0 0 0 0 0 0 0 0 0 0 0 0 0
0 0 1 1 0 0 0 0 1 1 1 1 1 1 1 1 2 1 0 1 0 1 1 0 0 0 0 0 0 0 0 0 0 0 0 0 0 0 0 0 0 0 0
0 1 1 1 1 1 1 1 0 0 1 1 1 0 0 0 0 -0 1 1 1 1 1 1 0 0 0 0 0 0 0 0 0 0 0 0 0 0 0 0 0 0 0
0 0 0 0 0 0 0 0 1 1 0 0 0 0 0 0 0 0 1 1 1 1 0 0 0 0 0 0 0 0 0 0 0 0 0 0 0 0 0 0 -0 -0 0
0 0 0 0 0 0 0 0 0 0 0 0 0 1 1 1 1 0 1 1 1 0 0 0 0 0 0 0 0 0 0 0 0 0 0 0 0 0 0 0 -0 -0 0
0 0 0 0 0 0 0 0 0 0 0 0 0 0 1 1 1 1 1 1 1 0 0 0 0 0 0 0 0 0 0 0 0 0 0 0 0 0 0 0 0 0 0
0 0 0 0 0 0 0 0 0 0 0 0 0 0 0 1 1 2 3 2 1 0 0 0 0 0 0 0 0 0 0 0 0 0 0 0 0 0 0 0 0 0 0
0 0 0 0 0 0 0 -0 -0 -0 -0 0 0 0 0 0 1 0 0 1 1 0 0 0 0 0 0 0 0 0 0 0 0 0 0 0 0 0 0 0 0 0 0
0 0 0 0 0 -0 -0 -0 -0 -0 -0 -0 -0 0 0 0 0 1 1 0 0 0 0 0 0 0 0 0 0 0 0 0 0 0 0 0 0 0 0 0 0 0 0
0 0 0 0 -0 -0 -0 -0 -0 -0 -0 -0 -0 0 0 0 0 0 1 0 0 0 0 0 0 0 0 0 0 0 0 0 0 0 0 0 0 0 0 0 0 0 0
0 0 0 -0 -0 -0 -0 -0 -0 -0 -0 -0 -0 0 0 0 0 0 0 0 0 0 0 0 0 0 0 0 0 0 0 0 0 0 0 0 0 0 0 0 0 0 0
0 0 -0 0 -0 -0 -0 -0 -0 -0 -0 -0 0 0 -0 -0 0 0 0 0 0 0 0 0 0 0 0 0 0 0 0 0 0 0 0 0 0 0 0 0 0 0 0
Wind_Speed_500mb
54 48 44 39 35 29 26 22 14 10 7 9 9 12 13 15 20 22 19 19 23 23 23 20 22 29 28 31 31 30 31 35 34 32 30 28 25 25 23 28 32 34 37
58 55 50 46 42 35 27 25 21 20 19 20 19 21 22 23 27 25 24 23 23 24 23 22 19 25 24 25 29 28 28 35 36 34 33 33 31 30 27 28 32 34 38
62 59 55 53 47 40 36 36 30 27 25 26 27 27 28 33 32 29 27 24 26 22 24 21 23 22 23 25 28 30 28 33 37 36 36 35 35 34 34 29 32 35 39
63 61 58 56 52 47 43 43 39 34 34 35 33 29 36 44 41 41 34 28 29 27 22 19 24 26 23 25 29 25 27 28 38 38 38 36 38 38 36 33 33 36 39
70 64 61 59 52 52 49 48 45 44 40 39 40 37 41 49 52 53 47 39 38 36 29 23 24 28 27 24 24 25 22 26 29 36 40 40 39 41 39 38 35 37 40
63 64 64 57 50 50 49 47 45 44 46 45 48 49 48 52 55 50 43 45 44 39 30 24 30 29 31 31 26 28 29 29 35 33 37 38 38 42 42 41 39 38 41
59 59 55 43 45 46 44 38 39 44 47 50 48 48 51 56 47 53 41 49 52 50 37 33 30 33 35 34 33 34 31 31 33 37 39 39 41 42 44 44 41 40 41
64 59 58 51 56 44 47 41 43 43 43 43 43 47 55 67 50 47 50 49 51 56 47 45 39 37 34 34 36 33 33 34 40 38 37 39 40 42 43 46 45 43 41
74 71 54 51 58 59 56 42 42 42 44 46 48 42 28 22 69 62 58 61 50 64 54 45 41 39 33 33 32 36 34 33 39 44 42 37 37 40 43 48 48 45 42
66 61 63 75 66 50 47 55 43 38 43 46 50 52 52 47 37 55 71 66 74 61 47 54 39 36 33 32 33 35 36 32 34 43 42 35 34 36 37 46 49 46 45
63 71 72 78 108 89 101 104 59 51 40 37 40 50 41 49 48 51 83 83 87 89 62 57 51 42 37 35 36 41 39 33 36 40 38 39 40 39 36 40 47 48 46
52 58 59 60 60 73 70 92 102 86 85 82 76 65 55 48 61 54 70 96 95 94 77 72 61 46 38 42 41 40 37 35 38 40 38 39 38 38 36 36 42 45 43
51 61 63 64 71 70 76 79 101 100 108 112 104 108 83 84 86 94 85 89 90 93 86 76 70 49 42 41 41 43 39 38 40 41 39 42 42 38 40 38 38 39 40
37 37 45 51 64 78 83 81 76 79 88 89 85 97 101 96 106 95 92 85 85 81 83 81 64 49 43 37 37 43 40 37 38 38 42 42 43 41 38 38 37 37 37
46 45 42 42 41 45 44 52 61 70 61 64 69 72 75 66 71 90 85 75 67 63 67 66 60 65 48 38 38 40 39 34 33 42 44 45 44 41 36 35 37 38 37
23 28 27 28 29 30 33 40 43 44 48 47 48 57 58 57 44 51 63 67 67 67 56 64 52 72 50 40 35 38 34 32 37 46 50 50 46 40 37 34 36 36 37
19 20 21 22 23 24 25 31 39 46 48 53 59 57 61 57 53 58 66 74 74 71 67 63 62 64 46 39 33 27 29 34 40 49 52 48 41 35 33 31 33 35 35
23 24 27 30 32 36 38 38 39 44 48 52 57 62 67 60 65 57 81 88 82 71 66 62 58 59 45 32 29 29 30 38 42 51 47 39 33 28 26 25 28 33 32
34 32 35 38 44 46 49 46 46 44 45 47 48 50 52 49 57 90 85 82 75 63 60 57 52 50 40 34 33 34 36 38 41 40 34 26 25 23 25 24 26 28 29
40 41 43 45 39 38 39 42 44 45 43 42 45 48 47 45 55 64 69 72 66 60 56 56 55 44 38 36 40 39 39 37 36 31 23 23 24 23 26 29 29 29 29
50 53 49 47 47 48 51 53 52 53 55 55 53 51 52 51 53 57 57 62 61 60 56 59 53 46 45 43 47 37 36 34 32 26 20 19 22 23 27 30 31 30 31
51 52 55 58 57 59 67 71 71 64 57 58 59 55 54 57 59 56 54 56 58 58 61 57 52 47 44 44 43 35 36 32 30 25 22 21 19 24 27 28 30 33 34
58 60 62 64 70 76 80 80 75 73 66 60 60 59 56 58 63 62 53 54 56 53 55 44 43 44 44 45 37 34 35 31 27 21 18 18 18 23 25 27 29 32 36
64 69 75 79 84 88 91 92 86 82 81 70 61 62 59 60 61 63 57 58 55 52 48 41 34 33 38 32 27 26 24 24 27 27 23 17 15 17 21 27 29 31 34
74 79 83 89 90 92 88 86 83 80 78 70 60 60 60 63 62 57 58 61 55 51 47 40 31 34 31 28 28 31 35 36 35 34 29 21 18 18 26 26 28 30 32
82 82 85 85 88 90 86 77 72 71 67 63 59 60 60 62 57 46 49 49 44 43 45 38 37 41 35 29 32 33 33 37 39 34 31 30 23 17 13 17 22 21 20
Wind_Direction_500mb
214 217 221 225 233 242 251 246 254 268 268 276 286 294 300 321 327 334 326 345 339 334 330 325 326 314 302 295 291 294 275 262 261 265 270 265 262 265 266 263 256 251 250
221 222 226 231 235 240 249 248 252 260 263 273 281 293 305 315 318 319 331 334 334 333 327 322 324 325 315 288 291 290 285 262 262 266 270 267 262 262 263 272 259 249 247
228 230 230 234 238 243 248 253 256 258 266 273 280 288 300 309 310 310 320 331 322 325 324 317 314 319 311 299 285 290 295 268 261 265 268 272 265 265 261 271 263 251 246
238 238 241 242 243 246 248 254 260 265 271 277 285 297 304 305 307 308 299 309 308 305 305 312 307 309 307 303 294 284 286 284 264 264 266 269 270 266 262 266 261 255 246
237 238 240 247 251 253 253 255 260 268 277 280 285 288 293 299 306 302 294 299 302 303 290 287 297 302 303 295 291 277 281 284 282 267 265 269 272 267 265 263 259 254 247
225 229 236 236 241 247 249 252 258 269 277 279 282 287 291 296 308 305 298 301 310 318 304 284 286 297 298 294 269 274 280 287 275 279 269 267 270 270 266 263 261 254 249
224 220 221 228 238 240 249 254 262 265 269 274 280 281 296 304 313 325 303 315 311 316 316 305 297 298 289 288 276 269 279 287 279 288 281 273 270 271 267 264 259 255 250
232 226 221 235 233 243 249 255 266 268 273 281 286 290 301 309 320 325 314 322 321 310 316 303 310 311 292 285 282 272 270 275 287 289 283 275 270 266 266 262 258 255 250
239 239 229 223 246 247 253 258 261 266 280 286 284 281 286 287 310 316 306 308 313 317 314 320 304 312 301 288 289 277 278 278 284 285 285 280 274 266 264 263 257 255 252
237 234 242 245 242 253 254 267 273 270 274 280 290 292 288 289 288 311 307 301 307 318 306 319 298 306 299 286 283 280 276 273 280 284 284 284 281 277 265 262 256 251 249
245 244 252 238 242 242 243 242 267 273 267 269 285 287 288 285 296 296 296 297 301 306 307 312 301 295 292 283 278 276 278 277 277 283 280 282 282 284 278 267 254 246 244
238 232 236 242 242 236 230 232 234 263 278 276 272 283 292 287 302 297 295 303 301 305 304 307 300 288 291 282 281 278 272 271 276 280 281 287 282 284 281 272 257 247 244
236 234 240 244 244 242 248 247 243 247 250 264 270 270 271 282 294 287 297 300 292 297 297 300 296 291 291 291 277 277 275 266 272 278 280 290 284 281 274 270 256 247 243
243 245 245 246 246 251 250 252 257 255 260 263 263 264 265 265 266 276 290 295 292 288 295 300 306 295 293 297 282 276 274 265 266 276 278 289 285 284 276 264 252 247 243
240 246 250 252 255 256 257 252 254 257 263 270 267 267 258 260 252 262 283 287 286 277 295 299 297 292 292 291 284 274 273 261 266 271 278 287 284 281 276 264 249 242 237
230 235 241 244 247 250 249 249 242 250 256 263 270 271 266 269 266 274 284 288 292 287 271 285 292 285 285 293 283 275 269 265 268 276 283 286 281 274 270 263 247 238 234
221 223 234 247 256 259 260 255 254 258 266 269 273 278 277 274 282 287 292 289 288 291 275 281 275 273 276 287 283 267 266 265 270 279 285 284 277 266 264 255 243 234 235
241 244 258 269 276 279 280 280 273 269 272 274 274 272 273 277 279 272 284 283 286 289 280 278 273 265 269 271 257 257 262 265 279 289 287 274 265 259 256 246 237 232 236
252 258 274 281 290 288 290 290 287 287 285 284 282 281 280 275 263 264 270 278 284 285 278 268 261 255 254 253 252 257 257 270 289 293 290 258 252 246 240 232 231 233 229
248 260 273 286 291 296 300 305 305 297 289 288 287 285 278 278 270 269 274 278 284 278 268 261 248 246 247 254 247 252 255 276 286 288 279 257 246 237 233 234 236 235 232
259 270 276 285 291 297 303 307 308 307 300 294 289 286 276 275 274 272 278 281 279 271 259 244 238 238 243 249 246 252 258 271 280 278 269 250 235 232 234 239 240 238 235
263 267 273 279 286 293 300 303 303 303 301 295 291 288 279 273 275 277 276 273 271 264 256 243 240 242 250 255 247 240 252 262 261 268 258 241 231 232 238 243 238 235 238
261 267 274 280 284 289 293 297 297 296 295 296 290 287 285 275 278 282 278 274 268 259 252 246 244 252 252 259 252 234 252 258 259 259 257 250 240 236 244 246 240 237 238
269 274 277 281 286 288 291 294 294 294 290 285 283 281 284 284 283 283 280 278 265 252 247 246 252 265 256 249 230 249 263 255 243 243 246 248 252 258 261 253 244 243 244
273 276 282 285 286 288 288 288 289 290 290 285 279 277 282 287 289 287 275 279 264 238 235 246 252 250 230 217 227 232 227 231 234 237 237 246 259 265 270 270 251 250 252
276 279 284 285 288 290 290 288 286 286 283 278 277 280 279 286 290 276 271 267 239 231 244 247 238 241 224 225 232 230 235 241 238 237 242 242 249 254 272 274 257 252 248
Wind_Speed_850mb
54 48 44 39 35 29 26 22 14 10 7 9 9 12 13 15 20 22 19 19 23 23 23 20 22 29 28 31 31 30 31 35 34 32 30 28 25 25 23 28 32 34 37
58 55 50 46 42 35 27 25 21 20 19 20 19 21 22 23 27 25 24 23 23 24 23 22 19 25 24 25 29 28 28 35 36 34 33 33 31 30 27 28 32 34 38
62 59 55 53 47 40 36 36 30 27 25 26 27 27 28 33 32 29 27 24 26 22 24 21 23 22 23 25 28 30 28 33 37 36 36 35 35 34 34 29 32 35 39
63 61 58 56 52 47 43 43 39 34 34 35 33 29 36 44 41 41 34 28 29 27 22 19 24 26 23 25 29 25 27 28 38 38 38 36 38 38 36 33 33 36 39
70 64 61 59 52 52 49 48 45 44 40 39 40 37 41 49 52 53 47 39 38 36 29 23 24 28 27 24 24 25 22 26 29 36 40 40 39 41 39 38 35 37 40
63 64 64 57 50 50 49 47 45 44 46 45 48 49 48 52 55 50 43 45 44 39 30 24 30 29 31 31 26 28 29 29 35 33 37 38 38 42 42 41 39 38 41
59 59 55 43 45 46 44 38 39 44 47 50 48 48 51 56 47 53 41 49 52 50 37 33 30 33 35 34 33 34 31 31 33 37 39 39 41 42 44 44 41 40 41
64 59 58 51 56 44 47 41 43 43 43 43 43 47 55 67 50 47 50 49 51 56 47 45 39 37 34 34 36 33 33 34 40 38 37 39 40 42 43 46 45 43 41
74 71 54 51 58 59 56 42 42 42 44 46 48 42 28 22 69 62 58 61 50 64 54 45 41 39 33 33 32 36 34 33 39 44 42 37 37 40 43 48 48 45 42
66 61 63 75 66 50 47 55 43 38 43 46 50 52 52 47 37 55 71 66 74 61 47 54 39 36 33 32 33 35 36 32 34 43 42 35 34 36 37 46 49 46 45
63 71 72 78 108 89 101 104 59 51 40 37 40 50 41 49 48 51 83 83 87 89 62 57 51 42 37 35 36 41 39 33 36 40 38 39 40 39 36 40 47 48 46
52 58 59 60 60 73 70 92 102 86 85 82 76 65 55 48 61 54 70 96 95 94 77 72 61 46 38 42 41 40 37 35 38 40 38 39 38 38 36 36 42 45 43
51 61 63 64 71 70 76 79 101 100 108 112 104 108 83 84 86 94 85 89 90 93 86 76 70 49 42 41 41 43 39 38 40 41 39 42 42 38 40 38 38 39 40
37 37 45 51 64 78 83 81 76 79 88 89 85 97 101 96 106 95 92 85 85 81 83 81 64 49 43 37 37 43 40 37 38 38 42 42 43 41 38 38 37 37 37
46 45 42 42 41 45 44 52 61 70 61 64 69 72 75 66 71 90 85 75 67 63 67 66 60 65 48 38 38 40 39 34 33 42 44 45 44 41 36 35 37 38 37
23 28 27 28 29 30 33 40 43 44 48 47 48 57 58 57 44 51 63 67 67 67 56 64 52 72 50 40 35 38 34 32 37 46 50 50 46 40 37 34 36 36 37
19 20 21 22 23 24 25 31 39 46 48 53 59 57 61 57 53 58 66 74 74 71 67 63 62 64 46 39 33 27 29 34 40 49 52 48 41 35 33 31 33 35 35
23 24 27 30 32 36 38 38 39 44 48 52 57 62 67 60 65 57 81 88 82 71 66 62 58 59 45 32 29 29 30 38 42 51 47 39 33 28 26 25 28 33 32
34 32 35 38 44 46 49 46 46 44 45 47 48 50 52 49 57 90 85 82 75 63 60 57 52 50 40 34 33 34 36 38 41 40 34 26 25 23 25 24 26 28 29
40 41 43 45 39 38 39 42 44 45 43 42 45 48 47 45 55 64 69 72 66 60 56 56 55 44 38 36 40 39 39 37 36 31 23 23 24 23 26 29 29 29 29
50 53 49 47 47 48 51 53 52 53 55 55 53 51 52 51 53 57 57 62 61 60 56 59 53 46 45 43 47 37 36 34 32 26 20 19 22 23 27 30 31 30 31
51 52 55 58 57 59 67 71 71 64 57 58 59 55 54 57 59 56 54 56 58 58 61 57 52 47 44 44 43 35 36 32 30 25 22 21 19 24 27 28 30 33 34
58 60 62 64 70 76 80 80 75 73 66 60 60 59 56 58 63 62 53 54 56 53 55 44 43 44 44 45 37 34 35 31 27 21 18 18 18 23 25 27 29 32 36
64 69 75 79 84 88 91 92 86 82 81 70 61 62 59 60 61 63 57 58 55 52 48 41 34 33 38 32 27 26 24 24 27 27 23 17 15 17 21 27 29 31 34
74 79 83 89 90 92 88 86 83 80 78 70 60 60 60 63 62 57 58 61 55 51 47 40 31 34 31 28 28 31 35 36 35 34 29 21 18 18 26 26 28 30 32
82 82 85 85 88 90 86 77 72 71 67 63 59 60 60 62 57 46 49 49 44 43 45 38 37 41 35 29 32 33 33 37 39 34 31 30 23 17 13 17 22 21 20
Wind_Direction_850mb
214 217 221 225 233 242 251 246 254 268 268 276 286 294 300 321 327 334 326 345 339 334 330 325 326 314 302 295 291 294 275 262 261 265 270 265 262 265 266 263 256 251 250
221 222 226 231 235 240 249 248 252 260 263 273 281 293 305 315 318 319 331 334 334 333 327 322 324 325 315 288 291 290 285 262 262 266 270 267 262 262 263 272 259 249 247
228 230 230 234 238 243 248 253 256 258 266 273 280 288 300 309 310 310 320 331 322 325 324 317 314 319 311 299 285 290 295 268 261 265 268 272 265 265 261 271 263 251 246
238 238 241 242 243 246 248 254 260 265 271 277 285 297 304 305 307 308 299 309 308 305 305 312 307 309 307 303 294 284 286 284 264 264 266 269 270 266 262 266 261 255 246
237 238 240 247 251 253 253 255 260 268 277 280 285 288 293 299 306 302 294 299 302 303 290 287 297 302 303 295 291 277 281 284 282 267 265 269 272 267 265 263 259 254 247
225 229 236 236 241 247 249 252 258 269 277 279 282 287 291 296 308 305 298 301 310 318 304 284 286 297 298 294 269 274 280 287 275 279 269 267 270 270 266 263 261 254 249
224 220 221 228 238 240 249 254 262 265 269 274 280 281 296 304 313 325 303 315 311 316 316 305 297 298 289 288 276 269 279 287 279 288 281 273 270 271 267 264 259 255 250
232 226 221 235 233 243 249 255 266 268 273 281 286 290 301 309 320 325 314 322 321 310 316 303 310 311 292 285 282 272 270 275 287 289 283 275 270 266 266 262 258 255 250
239 239 229 223 246 247 253 258 261 266 280 286 284 281 286 287 310 316 306 308 313 317 314 320 304 312 301 288 289 277 278 278 284 285 285 280 274 266 264 263 257 255 252
237 234 242 245 242 253 254 267 273 270 274 280 290 292 288 289 288 311 307 301 307 318 306 319 298 306 299 286 283 280 276 273 280 284 284 284 281 277 265 262 256 251 249
245 244 252 238 242 242 243 242 267 273 267 269 285 287 288 285 296 296 296 297 301 306 307 312 301 295 292 283 278 276 278 277 277 283 280 282 282 284 278 267 254 246 244
238 232 236 242 242 236 230 232 234 263 278 276 272 283 292 287 302 297 295 303 301 305 304 307 300 288 291 282 281 278 272 271 276 280 281 287 282 284 281 272 257 247 244
236 234 240 244 244 242 248 247 243 247 250 264 270 270 271 282 294 287 297 300 292 297 297 300 296 291 291 291 277 277 275 266 272 278 280 290 284 281 274 270 256 247 243
243 245 245 246 246 251 250 252 257 255 260 263 263 264 265 265 266 276 290 295 292 288 295 300 306 295 293 297 282 276 274 265 266 276 278 289 285 284 276 264 252 247 243
240 246 250 252 255 256 257 252 254 257 263 270 267 267 258 260 252 262 283 287 286 277 295 299 297 292 292 291 284 274 273 261 266 271 278 287 284 281 276 264 249 242 237
230 235 241 244 247 250 249 249 242 250 256 263 270 271 266 269 266 274 284 288 292 287 271 285 292 285 285 293 283 275 269 265 268 276 283 286 281 274 270 263 247 238 234
221 223 234 247 256 259 260 255 254 258 266 269 273 278 277 274 282 287 292 289 288 291 275 281 275 273 276 287 283 267 266 265 270 279 285 284 277 266 264 255 243 234 235
241 244 258 269 276 279 280 280 273 269 272 274 274 272 273 277 279 272 284 283 286 289 280 278 273 265 269 271 257 257 262 265 279 289 287 274 265 259 256 246 237 232 236
252 258 274 281 290 288 290 290 287 287 285 284 282 281 280 275 263 264 270 278 284 285 278 268 261 255 254 253 252 257 257 270 289 293 290 258 252 246 240 232 231 233 229
248 260 273 286 291 296 300 305 305 297 289 288 287 285 278 278 270 269 274 278 284 278 268 261 248 246 247 254 247 252 255 276 286 288 279 257 246 237 233 234 236 235 232
259 270 276 285 291 297 303 307 308 307 300 294 289 286 276 275 274 272 278 281 279 271 259 244 238 238 243 249 246 252 258 271 280 278 269 250 235 232 234 239 240 238 235
263 267 273 279 286 293 300 303 303 303 301 295 291 288 279 273 275 277 276 273 271 264 256 243 240 242 250 255 247 240 252 262 261 268 258 241 231 232 238 243 238 235 238
261 267 274 280 284 289 293 297 297 296 295 296 290 287 285 275 278 282 278 274 268 259 252 246 244 252 252 259 252 234 252 258 259 259 257 250 240 236 244 246 240 237 238
269 274 277 281 286 288 291 294 294 294 290 285 283 281 284 284 283 283 280 278 265 252 247 246 252 265 256 249 230 249 263 255 243 243 246 248 252 258 261 253 244 243 244
273 276 282 285 286 288 288 288 289 290 290 285 279 277 282 287 289 287 275 279 264 238 235 246 252 250 230 217 227 232 227 231 234 237 237 246 259 265 270 270 251 250 252
276 279 284 285 288 290 290 288 286 286 283 278 277 280 279 286 290 276 271 267 239 231 244 247 238 241 224 225 232 230 235 241 238 237 242 242 249 254 272 274 257 252 248